[[{"header":{"parameterUnit":"m.s-1","parameterCategory":1,"la1":30.2991,"la2":30.254,"lo1":-89.0895,"lo2":-89.0444,"dy":0.0017,"dx":0.0017,"nx":28,"ny":28,"refTime":"2024-02-22T09:00:00:Z","depth":0,"parameterNumber":2,"parameterNumberName":"U-component_of_WINDS"},"data":[0,0,0,0,0,0,0,0,0,0,0,0,0,0,0,0,0,0,0,0,0,0,0,0,0,0,0,0,0,0,0,0,0,0,0,0,0,0,0,0,0,0,0,0,0,0,0,0,0,0,0,0,0,0,0,0,0,0,-1.9918,-1.9917,0,-1.9845,-1.9844,-1.9844,-1.978,-1.9779,-1.9778,-1.9777,-1.97,-1.9699,-1.9698,0,0,0,0,0,0,0,0,0,0,0,0,0,-1.9998,-1.9997,-1.9918,-1.9917,-1.9916,-1.9845,-1.9844,-1.9843,-1.978,-1.9779,-1.9778,-1.9777,-1.9701,-1.9699,-1.9697,0,0,0,0,0,0,0,0,0,0,0,0,0,-1.9948,-1.9996,-1.9918,-1.9876,-1.9871,-1.9846,-1.9844,-1.9843,-1.978,-1.9779,-1.9778,-1.9777,-1.9701,-1.9699,-1.9697,-1.9707,0,0,-1.9691,-1.969,0,0,0,0,0,0,0,0,-1.9951,-1.9945,-1.9883,-1.9879,-1.9874,-1.982,-1.9844,-1.9797,-1.978,-1.9815,-1.9777,-1.9776,-1.9741,-1.9736,-1.9724,-1.9703,-1.97,-1.9691,-1.969,-1.9689,-1.9688,0,0,0,0,0,0,0,-1.9954,-1.9948,-1.9889,-1.9882,-1.9876,-1.9859,-1.9851,-1.9835,-1.9785,-1.9811,-1.9807,-1.9799,-1.9738,-1.9726,-1.9722,-1.9699,-1.9691,-1.9689,-1.9688,-1.9687,-1.9679,-1.968,0,0,0,0,0,0,-1.9965,-1.9951,-1.9891,-1.9887,-1.991,-1.9859,-1.985,-1.9839,-1.9785,-1.9776,-1.98,-1.9796,-1.973,-1.9724,-1.9719,-1.9724,-1.9689,-1.9687,-1.9686,-1.9678,-1.9679,-1.968,0,0,0,0,0,0,-1.9967,-1.996,-1.9894,-1.9918,-1.9908,-1.9859,-1.9847,-1.9838,-1.9826,-1.9776,-1.9767,-1.9798,-1.9729,-1.9722,-1.971,-1.9721,-1.9686,-1.9684,-1.9676,-1.9678,-1.9679,-1.9737,0,0,0,0,0,0,-1.9969,-1.9961,-1.9965,-1.9918,-1.9907,-1.9888,-1.9848,-1.9837,-1.9823,-1.9817,-1.9771,-1.9762,-1.9728,-1.9713,-1.9708,-1.9717,-1.9682,-1.9675,-1.9677,-1.9679,-1.9734,-1.974,-1.9746,0,0,0,0,0,-1.9972,-1.9984,-1.9966,-1.9959,-1.9911,-1.9889,-1.9882,-1.9843,-1.9824,-1.9827,-1.9795,-1.9764,-1.9721,-1.9713,-1.9706,-1.9715,-1.9674,-1.9677,-1.9679,-1.9731,-1.9739,-1.9746,0,0,0,0,0,0,-2.0033,-1.9977,-1.9956,-1.9953,-1.9926,-1.9878,-1.988,-1.9853,-1.9829,-1.9825,-1.9776,-1.9767,-1.9759,-1.9736,-1.9728,-1.972,-1.9693,-1.9694,-1.9735,-1.9742,-1.9748,-1.9753,-1.9681,0,0,0,0,0,-2.0046,-2.0034,-1.9985,-1.9987,-1.9975,-1.993,-1.9919,-1.9891,-1.986,-1.9848,-1.9815,-1.9786,-1.9765,-1.9753,-1.9731,-1.9731,-1.9718,-1.9733,-1.9739,-1.9745,-1.9745,-1.9741,-1.9746,-1.9687,-1.9687,-1.9687,0,0,-2.0073,-2.0041,-2.0036,-1.9999,-1.9974,-1.9961,-1.9921,-1.9909,-1.9897,-1.9846,-1.9832,-1.9807,-1.9771,-1.9764,-1.9759,-1.9744,-1.9759,-1.9748,-1.9752,-1.975,-1.9744,-1.9749,-1.9754,-1.9689,-1.9689,-1.9688,0,0,-2.0114,-2.009,-2.0088,-2.0064,-2.0028,-1.9998,-1.9998,-1.9953,-1.9935,-1.992,-1.9881,-1.9866,-1.9833,-1.9808,-1.9791,-1.9822,-1.9792,-1.9817,-1.9847,-1.9843,-1.9848,-1.9852,-1.9861,-1.9865,-1.9818,-1.9818,-1.9818,0,-2.0152,-2.0131,-2.009,-2.008,-2.0064,-2.0018,-2.0014,-1.9993,-1.9951,-1.9941,-1.9925,-1.9881,-1.9853,-1.9839,-1.9846,-1.9835,-1.9831,-1.9821,-1.9851,-1.9854,-1.9857,-1.9865,-1.9869,-1.9821,-1.9821,-1.9821,-1.982,0,-2.0178,-2.0164,-2.0166,-2.0128,-2.0112,-2.0105,-2.0062,-2.0051,-2.0024,-1.9996,-1.998,-1.9946,-1.9916,-1.9911,-1.9885,-1.9892,-1.9883,-1.986,-1.9832,-1.9866,-1.9873,-1.9876,-1.9826,-1.9825,-1.9824,-1.9823,0,0,-2.0255,-2.0193,-2.0195,-2.0176,-2.0132,-2.012,-2.011,-2.0081,-2.0072,-2.0045,-2.0034,-2.0006,-1.9984,-1.9965,-1.9935,-1.9932,-1.9956,-1.9909,-1.9907,-1.9917,-1.9959,-1.9975,-1.998,-1.9937,-1.9937,-1.9938,-1.9961,0,-2.0287,-2.0268,-2.0231,-2.0223,-2.0208,-2.0164,-2.0155,-2.0127,-2.0099,-2.0082,-2.0051,-2.0031,-2.0005,-1.9993,-1.9988,-1.9954,-1.9964,-1.9952,-1.9924,-1.9923,-1.9933,-1.9983,-2.0001,-2.0025,-1.9964,-1.9964,-1.9964,0,-2.0323,-2.0298,-2.0289,-2.0245,-2.0237,-2.0231,-2.02,-2.0185,-2.0151,-2.0131,-2.0109,-2.0077,-2.0062,-2.0038,-2.0016,-2.0009,-1.9995,-1.9977,-1.9977,-1.9971,-1.9945,-1.9977,-2.0032,-2.0035,-1.9968,-1.9968,-1.9968,0,-2.0377,-2.0342,-2.0332,-2.0317,-2.0266,-2.0262,-2.024,-2.0205,-2.0189,-2.0163,-2.0151,-2.0123,-2.0107,-2.0086,-2.0046,-2.0032,-2.0027,-2.0,-2.0009,-2.001,-2.0008,-2.0008,-2.006,-2.0003,-2.0003,-2.0003,-2.0003,0,-2.0416,-2.0412,-2.0355,-2.0348,-2.0342,-2.0298,-2.0292,-2.0266,-2.0235,-2.0221,-2.0181,-2.0169,-2.0118,-2.0099,-2.0068,-2.0053,-2.0047,-2.0029,-2.002,-2.0031,-2.0033,-2.002,-2.0017,-2.0004,-2.0004,-2.0003,-2.0003,0,-2.0475,-2.0437,-2.0422,-2.0375,-2.0363,-2.036,-2.0318,-2.0309,-2.028,-2.0263,-2.0256,-2.0209,-2.0185,-2.0143,-2.0107,-2.0086,-2.0076,-2.0063,-2.0088,-2.0082,-2.0092,-2.0091,-2.0135,-2.0138,-2.0082,-2.0083,-2.0083,0,-2.0502,-2.0497,-2.045,-2.0438,-2.0418,-2.04,-2.0383,-2.034,-2.0325,-2.0285,-2.028,-2.0253,-2.0229,-2.0191,-2.0153,-2.0124,-2.0109,-2.0126,-2.0104,-2.0115,-2.0106,-2.0106,-2.0104,-2.0131,-2.0132,-2.0132,-2.0133,0,-2.0552,-2.0533,-2.0513,-2.0485,-2.0467,-2.0442,-2.0416,-2.0408,-2.0359,-2.0343,-2.0318,-2.03,-2.0262,-2.0235,-2.02,-2.0176,-2.0145,-2.014,-2.014,-2.0151,-2.0164,-2.0155,-2.01,-2.0139,-2.0138,-2.0138,-2.0138,-2.0137,-2.0594,-2.0587,-2.0552,-2.053,-2.0505,-2.0481,-2.047,-2.0439,-2.0418,-2.0384,-2.036,-2.0336,-2.03,-2.0251,-2.0228,-2.0208,-2.0194,-2.0195,-2.0194,-2.0195,-2.0198,-2.0169,-2.0202,-2.0201,-2.0201,-2.0201,-2.0201,0,-2.0641,-2.0616,-2.0596,-2.056,-2.0542,-2.0516,-2.0485,-2.0471,-2.0451,-2.042,-2.0397,-2.0367,-2.034,-2.03,-2.0269,-2.026,-2.0245,-2.0253,-2.0252,-2.0247,-2.0213,-2.0215,-2.0266,-2.0266,-2.0266,-2.0266,-2.0266,-2.0266,-2.0662,-2.0649,-2.0626,-2.0599,-2.0574,-2.0551,-2.0535,-2.0512,-2.0487,-2.0456,-2.0434,-2.0408,-2.0373,-2.0339,-2.0312,-2.03,-2.029,-2.0302,-2.0286,-2.0255,-2.0249,-2.0244,-2.0245,-2.0301,-2.0301,-2.0321,-2.0321,-2.0321]},{"header":{"parameterUnit":"m.s-1","parameterCategory":1,"la1":30.2991,"la2":30.254,"lo1":-89.0895,"lo2":-89.0444,"dy":0.0017,"dx":0.0017,"nx":28,"ny":28,"refTime":"2024-02-22T09:00:00:Z","depth":0,"parameterNumber":3,"parameterNumberName":"V-component_of_WINDS"},"data":[0,0,0,0,0,0,0,0,0,0,0,0,0,0,0,0,0,0,0,0,0,0,0,0,0,0,0,0,0,0,0,0,0,0,0,0,0,0,0,0,0,0,0,0,0,0,0,0,0,0,0,0,0,0,0,0,0,0,2.4992,2.4992,0,2.5029,2.5029,2.503,2.5018,2.5017,2.5016,2.5016,2.5051,2.5053,2.5055,0,0,0,0,0,0,0,0,0,0,0,0,0,2.4911,2.4913,2.4992,2.4993,2.4993,2.5029,2.5029,2.503,2.5018,2.5017,2.5016,2.5015,2.5051,2.5053,2.5055,0,0,0,0,0,0,0,0,0,0,0,0,0,2.4947,2.4913,2.4992,2.4992,2.4992,2.5029,2.5029,2.503,2.5018,2.5017,2.5016,2.5015,2.505,2.5052,2.5055,2.5094,0,0,2.5063,2.5064,0,0,0,0,0,0,0,0,2.4945,2.495,2.4991,2.4992,2.4992,2.5018,2.5014,2.5051,2.5019,2.5008,2.5016,2.5014,2.5041,2.5044,2.5053,2.5095,2.5097,2.5063,2.5064,2.5065,2.5066,0,0,0,0,0,0,0,2.4942,2.4948,2.5006,2.4992,2.4992,2.4989,2.4993,2.5021,2.5031,2.5009,2.5008,2.5013,2.5041,2.5051,2.5054,2.5097,2.5063,2.5065,2.5066,2.5067,2.5174,2.5175,0,0,0,0,0,0,2.494,2.4946,2.5005,2.5008,2.4965,2.4992,2.4996,2.5011,2.503,2.5032,2.5014,2.5012,2.5047,2.5051,2.5055,2.5103,2.5065,2.5068,2.5069,2.5173,2.5174,2.5176,0,0,0,0,0,0,2.4938,2.4945,2.5004,2.4977,2.4984,2.4994,2.5011,2.5012,2.5022,2.5034,2.5035,2.5023,2.5047,2.5052,2.5085,2.5104,2.5069,2.5071,2.5171,2.5173,2.5175,2.5198,0,0,0,0,0,0,2.4936,2.4945,2.4959,2.4977,2.4985,2.5033,2.5012,2.5013,2.5027,2.5025,2.5042,2.5044,2.5046,2.5081,2.5087,2.5107,2.5073,2.5169,2.5172,2.5174,2.5195,2.52,2.5204,0,0,0,0,0,2.4933,2.4964,2.496,2.4967,2.5004,2.5034,2.5039,2.5041,2.5028,2.5043,2.5051,2.5044,2.5101,2.5084,2.5091,2.5112,2.5168,2.5171,2.5174,2.5193,2.5199,2.5204,0,0,0,0,0,0,2.4947,2.4966,2.4962,2.5,2.5016,2.5032,2.5051,2.5047,2.5066,2.5063,2.5065,2.5069,2.5103,2.511,2.5092,2.5151,2.5133,2.5137,2.5145,2.5151,2.5155,2.5153,2.5075,0,0,0,0,0,2.4954,2.4977,2.4992,2.5024,2.5032,2.504,2.5053,2.5054,2.507,2.5076,2.5086,2.5101,2.5123,2.5137,2.5157,2.5196,2.52,2.5214,2.5219,2.5222,2.5226,2.5249,2.5255,2.5186,2.5186,2.5186,0,0,2.497,2.4983,2.4997,2.5027,2.5039,2.5063,2.5046,2.5071,2.5089,2.508,2.5112,2.512,2.5137,2.5173,2.519,2.5181,2.5247,2.5226,2.5229,2.5231,2.5252,2.5259,2.5265,2.5188,2.5187,2.5187,0,0,2.501,2.5022,2.5051,2.5064,2.5083,2.5089,2.5095,2.5113,2.5118,2.5151,2.5145,2.5166,2.5202,2.5215,2.5227,2.5274,2.5268,2.5281,2.5305,2.5327,2.5332,2.5337,2.5355,2.5361,2.5285,2.5285,2.5285,0,2.5027,2.5063,2.5066,2.5092,2.5106,2.51,2.5129,2.5141,2.5165,2.5175,2.5165,2.5212,2.5223,2.5263,2.5275,2.5284,2.5292,2.5279,2.5331,2.5336,2.5341,2.5358,2.5364,2.5286,2.5286,2.5286,2.5286,0,2.5083,2.5108,2.5128,2.5154,2.517,2.5197,2.5204,2.522,2.5219,2.5226,2.5259,2.5273,2.5296,2.5306,2.5305,2.5346,2.534,2.5331,2.5312,2.5349,2.5365,2.5371,2.5288,2.5288,2.5287,2.5287,0,0,2.5132,2.516,2.5168,2.518,2.5201,2.5221,2.5248,2.5272,2.5286,2.5303,2.5327,2.5359,2.5351,2.5364,2.5364,2.5384,2.5422,2.5372,2.5372,2.5381,2.5469,2.5477,2.5484,2.5418,2.5419,2.542,2.5468,0,2.5175,2.5225,2.5229,2.5273,2.5296,2.5292,2.5316,2.5332,2.5339,2.536,2.5367,2.5391,2.5378,2.5386,2.5404,2.5413,2.5439,2.541,2.544,2.5441,2.5437,2.5493,2.55,2.5545,2.5474,2.5475,2.5476,0,2.5232,2.5253,2.53,2.5319,2.5329,2.5351,2.5374,2.5394,2.5412,2.5416,2.5432,2.543,2.5459,2.544,2.5479,2.5459,2.5472,2.5478,2.548,2.5483,2.5461,2.5498,2.5559,2.5566,2.5486,2.5485,2.5484,0,2.5264,2.5304,2.5338,2.5348,2.5371,2.5387,2.5397,2.5414,2.5429,2.5449,2.5459,2.5482,2.5494,2.5512,2.5517,2.5502,2.5557,2.5538,2.5562,2.5562,2.5573,2.5573,2.5638,2.5581,2.558,2.558,2.558,0,2.5312,2.5342,2.5353,2.5374,2.5406,2.5411,2.5443,2.5452,2.5468,2.549,2.5487,2.5508,2.5513,2.5535,2.5539,2.5572,2.5578,2.5582,2.5583,2.5583,2.5582,2.5591,2.5589,2.5582,2.5582,2.5581,2.5581,0,2.5354,2.5363,2.54,2.542,2.5425,2.5449,2.5465,2.5486,2.5493,2.5521,2.5528,2.554,2.5566,2.5573,2.5603,2.5606,2.5645,2.5643,2.5639,2.564,2.5663,2.5661,2.5737,2.5748,2.5683,2.5683,2.5684,0,2.5385,2.5407,2.543,2.5446,2.5457,2.5482,2.5497,2.5503,2.5519,2.5542,2.556,2.5586,2.5607,2.5649,2.5659,2.5683,2.5682,2.5707,2.5685,2.5685,2.5683,2.5682,2.5685,2.5711,2.5712,2.5712,2.5713,0,2.5438,2.5442,2.5465,2.549,2.5509,2.5528,2.5547,2.556,2.5568,2.5586,2.5614,2.563,2.5662,2.5689,2.5713,2.5723,2.572,2.572,2.5727,2.5727,2.5725,2.5727,2.5652,2.5718,2.5717,2.5717,2.5717,2.5716,2.5476,2.5496,2.5516,2.5542,2.5557,2.5575,2.5596,2.5606,2.5629,2.5657,2.5658,2.5688,2.5707,2.574,2.5752,2.5775,2.5768,2.5777,2.578,2.5782,2.5785,2.5721,2.5779,2.5779,2.5779,2.5779,2.5779,0,2.553,2.5543,2.5567,2.5594,2.5615,2.561,2.5631,2.5649,2.5676,2.5694,2.5715,2.5747,2.5773,2.5786,2.5812,2.5828,2.5827,2.5835,2.5834,2.5837,2.579,2.5782,2.5835,2.5835,2.5835,2.5835,2.5835,2.5835,2.556,2.5595,2.5602,2.5644,2.5657,2.5687,2.5699,2.5716,2.5731,2.5767,2.5789,2.5798,2.5814,2.5842,2.5865,2.5868,2.5878,2.5887,2.589,2.5846,2.584,2.5834,2.5827,2.5889,2.5889,2.5935,2.5935,2.5936]}]]